Location: *
(46.0770°N, 1.6444°E)
Time: 11:24:02
(UTC+00:00)

Cosmos 2151 Rocket - Pass Details

Date: 16 September 2019
Orbit: 618 x 642 km, 82.5° (Epoch: 13 October)

Event Time Altitude Azimuth Distance (km) Brightness Sun altitude
Rises 19:09:16 0° 198° (SSW) 2,893 7.0 -12.0°
Reaches altitude 10° 19:11:31 10° 202° (SSW) 1,988 6.2 -12.4°
Maximum altitude 19:15:52 58° 282° (WNW) 728 4.3 -13.1°
Drops below altitude 10° 19:20:13 10° 2° (N) 1,995 6.4 -13.8°
Sets 19:22:29 0° 6° (N) 2,905 7.2 -14.2°
